Regional Weather Roundup
Issued by NWS

Home | Current Version | Previous Version | Graphics & Text | Print | Product List | Glossary On
Versions: 1 2 3 4 5 6 7 8 9 10 11 12 13 14 15 16 17 18 19 20 21 22 23 24 25 26 27 28 29 30 31 32 33 34 35 36 37 38 39 40 41 42 43 44 45 46 47 48 49 50
344
ASUS43 KDTX 110201
RWRMI
MICHIGAN HOURLY REGIONAL WEATHER ROUNDUP
NATIONAL WEATHER SERVICE DETROIT/PONTIAC MI
900 PM EST WED FEB 10 2016

NOTE: "FAIR" INDICATES FEW OR NO CLOUDS BELOW 12,000 FEET WITH NO
SIGNIFICANT WEATHER AND/OR OBSTRUCTION TO VISIBILITY.

MIZ047>049-052>055-059>063-066>070-074>076-081>083-110300-
SOUTHEAST LOWER MICHIGAN

CITY           SKY/WX    TMP DP  RH WIND       PRES   REMARKS
ADRIAN         CLOUDY    17   4  56 N13G23    30.00R WCI   4
ALMA           CLEAR     12   7  78 W7        30.01R WCI   2
ANN ARBOR      LGT SNOW  15   8  73 N13       29.97R WCI   1
BAD AXE        CLOUDY    12   4  69 N15G23    29.93R WCI  -4
CARO           CLOUDY    12   1  62 NW9       29.95R WCI   0
DETROIT CITY   CLOUDY    16   6  65 NW9       29.96R WCI   4
DETROIT        FLURRIES  16   9  74 W15       29.98R WCI   1
FLINT          CLEAR     11  -2  56 NW8       29.97R WCI  -1
GROSSE ILE     CLOUDY    19   9  63 NW15      29.96R WCI   5
HILLSDALE      CLOUDY    14   0  52 NW14G24   29.97R WCI   0
HOWELL         PTCLDY    12   4  69 NW9       29.96R WCI   0

CITY           SKY/WX    TMP DP  RH WIND       PRES   REMARKS
JACKSON        MOCLDY    14   1  56 NW12      29.98R WCI   0
LAMBERTVILLE   CLOUDY    18   6  58 NW12G23   30.00R WCI   6
LANSING        CLEAR     13   3  64 NW12      30.00R WCI  -1
LAPEER         FAIR      10   0  62 NW7       29.95R WCI   0
MASON          PTCLDY    14   4  65 NW9G16    29.99R WCI   1
MONROE         CLOUDY    18  11  74 NW14      29.98R WCI   4
MT. CLEMENS    PTCLDY    14   2  59 NW10      29.94R WCI   1
PONTIAC        PTCLDY    12   1  61 NW13      29.93R WCI  -3
PORT HOPE        N/A     14   4  64 NW23G31   29.90R WCI  -5
PORT HURON     PTCLDY    12   1  62 W7        29.94R WCI   2
TRI CITIES     CLEAR     13   1  59 NW12      29.99R WCI  -1
MIDLAND        FAIR      11   1  62 W6        29.99R WCI   2
TROY           CLEAR     15   6  65 NW6       29.97R WCI   7
SAGINAW HB     CLEAR     12   3  67 NW10      29.99R WCI  -1
$$
MIZ043>046-050>051-056>058-064>065-071>073-077>080-110300-
SOUTHWEST LOWER MICHIGAN

CITY           SKY/WX    TMP DP  RH WIND       PRES   REMARKS
BATTLE CREEK   CLEAR     14   2  58 NW9       30.02R WCI   2
BENTON HARBOR  CLOUDY    18   8  65 NW7       30.08R WCI   9
BIG RAPIDS     MOCLDY    11   5  77 W5        29.99R WCI   3
COLDWATER      CLOUDY    15   8  71 NW7       30.01R WCI   6
FREMONT        LGT SNOW  15   9  76 NW10      30.03R WCI   2
HOLLAND        LGT SNOW  15  10  80 N3        30.06R
GRAND RAPIDS   PTCLDY    14   7  73 NW7       30.03R WCI   4
IONIA          FAIR      13   5  69 W8        30.00S WCI   2
KALAMAZOO      CLOUDY    15   5  64 NW10      30.04R WCI   2
LUDINGTON      FLURRIES  16   6  64 N12G17    30.06R WCI   3
MARSHALL       CLEAR     14   3  61 NW9       30.00R WCI   2
MOUNT PLEASANT MOCLDY    14   6  70 NW5       29.99R WCI   6
MUSKEGON       CLOUDY    16   8  71 N7        30.06R WCI   6
SOUTH HAVEN    CLOUDY    18   8  64 NW14      30.06R WCI   5
$$
MIZ016>042-110300-
NORTHERN LOWER MICHIGAN

CITY           SKY/WX    TMP DP  RH WIND       PRES   REMARKS
ALPENA         LGT SNOW   9   5  84 NW7       29.94R FOG     WCI  -2
BEAVER ISLAND  MOCLDY    13   4  69 N16G22    30.00S WCI  -4
BELLAIRE       CLOUDY    14   2  60 N9G17     30.01R WCI   1
CADILLAC       FLURRIES  12   6  76 NW13      29.93S WCI  -3
CHARLEVOIX     CLOUDY    14   5  66 NW21G30   30.02S WCI  -3
FRANKFORT      LGT SNOW  16   8  70 NW10G24   30.04R WCI   3
GAYLORD        CLOUDY     8  -2  63 VRB6      29.92R WCI  -2
GRAYLING       LGT SNOW  10   4  75 NW5       29.95R WCI   2
HARBOR SPRINGS CLOUDY    11   2  67 CALM      29.98S
HOUGHTON LAKE  CLEAR      9  -1  64 NW8       29.94R WCI  -3
MANISTEE       CLOUDY    16   7  67 NW14G23   30.03S WCI   1
OSCODA         CLOUDY     9  -1  65 NW10      29.94R WCI  -6
PELLSTON       CLOUDY     9   0  67 NW9       29.99R WCI  -4
ROGERS CITY    CLOUDY    10   0  63 N14G25    29.96R WCI  -5
TRAVERSE CITY  LGT SNOW  16   6  65 NW14G22   30.00S WCI   2
$$
MIZ007>008-015-110300-
EASTERN UPPER MICHIGAN

CITY           SKY/WX    TMP DP  RH WIND       PRES   REMARKS
KINROSS        MOCLDY     3  -2  78 N8        29.96R WCI -10
MACKINAC ISLAN LGT SNOW   8   4  82 N10G17    29.97R WCI  -6
NEWBERRY       LGT SNOW   9   6  88 N7        29.97R WCI  -2
S. S. MARIE    CLEAR      3  -8  60 N12G20    29.98R WCI -13
$$
MIZ004>006-011>014-085-110300-
CENTRAL UPPER MICHIGAN

CITY           SKY/WX    TMP DP  RH WIND       PRES   REMARKS
MANISTIQUE     LGT SNOW  11   7  86 W7        30.02R WCI   0
ESCANABA       CLEAR      9  -2  61 NW12      30.08S WCI  -6
MENOMINEE      CLEAR      7  -8  51 N7        30.11R WCI  -5
SAWYER-GWINN   MOCLDY     5   0  78 NW18G24   30.02S WCI -15
$$
MIZ001>003-009>011-084-110300-
WESTERN UPPER MICHIGAN

CITY           SKY/WX    TMP DP  RH WIND       PRES   REMARKS
IRON MOUNTAIN  CLOUDY     7  -3  64 NW8       30.07R WCI  -6
HOUGHTON       FLURRIES   9  -1  64 N17       30.07R WCI  -9
COPPER HARBOR    N/A     13   5  70 NE18G26   30.09R WCI  -4
IRONWOOD       CLOUDY     7   1  78 NW8       30.09S WCI  -6
$$

ABBREVIATIONS USED IN REMARKS
   TC - TEMPERATURE IN CELSIUS
  WCI - WIND CHILL INDEX
   HX - HEAT INDEX
  VSB - VISIBILITY





USA.gov is the U.S. government's official web portal to all federal, state and local government web resources and services.